| time (UTC) | temp F | wind direction | speed MPH | gust MPH | rain 1hr in | rain 24hr in | rain mn in | humidity % | barometer mb |
| 20260505214517 | 89 | 315 | 3.0 | 7.0 | 0.00 | 0.00 | 0.00 | 51 | 1002.7 |
| 20260505213517 | 90 | 315 | 3.0 | 9.0 | 0.00 | 0.00 | 0.00 | 51 | 1002.6 |
| 20260505212517 | 90 | 315 | 2.0 | 8.0 | 0.00 | 0.00 | 0.00 | 51 | 1002.5 |
| 20260505211517 | 92 | 180 | 3.0 | 7.0 | 0.00 | 0.00 | 0.00 | 50 | 1002.6 |
| 20260505210517 | 93 | 158 | 1.0 | 4.0 | 0.00 | 0.00 | 0.00 | 52 | 1002.6 |
| 20260505205517 | 93 | 180 | 2.0 | 5.0 | 0.00 | 0.00 | 0.00 | 51 | 1002.6 |
| 20260505204517 | 93 | 180 | 2.0 | 6.0 | 0.00 | 0.00 | 0.00 | 50 | 1002.8 |
| 20260505203517 | 94 | 203 | 3.0 | 9.0 | 0.00 | 0.00 | 0.00 | 52 | 1002.9 |
| 20260505202517 | 93 | 225 | 2.0 | 6.0 | 0.00 | 0.00 | 0.00 | 56 | 1003.0 |
| 20260505201517 | 93 | 203 | 4.0 | 11.0 | 0.00 | 0.00 | 0.00 | 53 | 1003.2 |
| 20260505200517 | 93 | 203 | 4.0 | 10.0 | 0.00 | 0.00 | 0.00 | 54 | 1003.2 |
| 20260505195517 | 93 | 203 | 4.0 | 12.0 | 0.00 | 0.00 | 0.00 | 57 | 1003.2 |
| 20260505194537 | 92 | 180 | 2.0 | 8.0 | 0.00 | 0.00 | 0.00 | 56 | 1003.3 |
| 20260505193517 | 92 | 203 | 3.0 | 8.0 | 0.00 | 0.00 | 0.00 | 59 | 1003.4 |
| 20260505192517 | 91 | 203 | 4.0 | 12.0 | 0.00 | 0.00 | 0.00 | 58 | 1003.5 |
| 20260505191514 | 90 | 203 | 4.0 | 10.0 | 0.00 | 0.00 | 0.00 | 59 | 1003.2 |
| 20260505190557 | 90 | 203 | 4.0 | 9.0 | 0.00 | 0.00 | 0.00 | 62 | 1003.2 |
| 20260505185517 | 89 | 203 | 4.0 | 10.0 | 0.00 | 0.00 | 0.00 | 62 | 1003.3 |
| 20260505184537 | 88 | 203 | 3.0 | 9.0 | 0.00 | 0.00 | 0.00 | 63 | 1003.2 |
| 20260505183557 | 87 | 203 | 5.0 | 12.0 | 0.00 | 0.00 | 0.00 | 63 | 1003.5 |
| 20260505182517 | 87 | 203 | 5.0 | 11.0 | 0.00 | 0.00 | 0.00 | 66 | 1003.6 |
| 20260505181520 | 87 | 203 | 6.0 | 13.0 | 0.00 | 0.00 | 0.00 | 64 | 1003.5 |
| 20260505180517 | 87 | 203 | 5.0 | 14.0 | 0.00 | 0.00 | 0.00 | 64 | 1003.5 |
| 20260505175517 | 87 | 203 | 6.0 | 12.0 | 0.00 | 0.00 | 0.00 | 65 | 1003.6 |
| 20260505174517 | 87 | 203 | 6.0 | 17.0 | 0.00 | 0.00 | 0.00 | 64 | 1003.6 |
| 20260505173517 | 86 | 180 | 4.0 | 11.0 | 0.00 | 0.00 | 0.00 | 66 | 1003.4 |
| 20260505172517 | 85 | 203 | 5.0 | 15.0 | 0.00 | 0.00 | 0.00 | 68 | 1003.5 |
| 20260505171558 | 85 | 203 | 5.0 | 12.0 | 0.00 | 0.00 | 0.00 | 68 | 1003.6 |
| 20260505170515 | 84 | 203 | 6.0 | 13.0 | 0.00 | 0.00 | 0.00 | 68 | 1003.5 |
| 20260505165517 | 84 | 203 | 5.0 | 12.0 | 0.00 | 0.00 | 0.00 | 70 | 1003.5 |
| 20260505164517 | 82 | 180 | 4.0 | 10.0 | 0.00 | 0.00 | 0.00 | 72 | 1003.5 |
| 20260505163517 | 82 | 203 | 5.0 | 21.0 | 0.00 | 0.00 | 0.00 | 71 | 1003.4 |
| 20260505162517 | 81 | 203 | 6.0 | 16.0 | 0.00 | 0.00 | 0.00 | 72 | 1003.3 |
| 20260505161537 | 81 | 180 | 6.0 | 13.0 | 0.00 | 0.00 | 0.00 | 72 | 1003.2 |
| 20260505160517 | 81 | 203 | 6.0 | 12.0 | 0.00 | 0.00 | 0.00 | 73 | 1003.3 |
| 20260505152517 | 78 | 180 | 4.0 | 13.0 | 0.00 | 0.00 | 0.00 | 75 | 1003.1 |
| 20260505151517 | 78 | 203 | 4.0 | 10.0 | 0.00 | 0.00 | 0.00 | 76 | 1003.1 |
| 20260505150517 | 78 | 203 | 7.0 | 15.0 | 0.00 | 0.00 | 0.00 | 76 | 1003.0 |
| 20260505140518 | 75 | 203 | 6.0 | 19.0 | 0.00 | 0.00 | 0.00 | 81 | 1002.8 |
| 20260505124537 | 71 | 225 | 6.0 | 14.0 | 0.00 | 0.00 | 0.00 | 86 | 1002.6 |
| 20260505123517 | 71 | 203 | 5.0 | 10.0 | 0.00 | 0.00 | 0.00 | 87 | 1002.3 |
| 20260505122517 | 71 | 180 | 5.0 | 13.0 | 0.00 | 0.00 | 0.00 | 87 | 1002.4 |
| 20260505121517 | 71 | 203 | 5.0 | 11.0 | 0.00 | 0.00 | 0.00 | 87 | 1002.3 |
| 20260505120557 | 71 | 203 | 3.0 | 8.0 | 0.00 | 0.00 | 0.00 | 87 | 1002.2 |
| 20260505115517 | 70 | 203 | 4.0 | 10.0 | 0.00 | 0.00 | 0.00 | 87 | 1002.2 |
| 20260505114537 | 70 | 203 | 5.0 | 11.0 | 0.00 | 0.00 | 0.00 | 87 | 1002.1 |
| 20260505113517 | 70 | 203 | 3.0 | 13.0 | 0.00 | 0.00 | 0.00 | 87 | 1002.0 |
| 20260505112538 | 70 | 180 | 4.0 | 13.0 | 0.00 | 0.00 | 0.00 | 87 | 1001.9 |
| 20260505111517 | 70 | 203 | 5.0 | 14.0 | 0.00 | 0.00 | 0.00 | 87 | 1001.9 |
| 20260505110537 | 70 | 135 | 5.0 | 13.0 | 0.00 | 0.00 | 0.00 | 87 | 1002.0 |
| 20260505101537 | 71 | 180 | 5.0 | 17.0 | 0.00 | 0.00 | 0.00 | 86 | 1002.0 |
| 20260505100517 | 71 | 158 | 5.0 | 12.0 | 0.00 | 0.00 | 0.00 | 86 | 1002.0 |
| 20260505095517 | 71 | 203 | 6.0 | 16.0 | 0.00 | 0.00 | 0.00 | 85 | 1001.9 |
| 20260505094517 | 71 | 180 | 6.0 | 18.0 | 0.00 | 0.00 | 0.00 | 85 | 1002.0 |
| 20260505093517 | 71 | 158 | 7.0 | 16.0 | 0.00 | 0.00 | 0.00 | 84 | 1002.0 |
| 20260505092517 | 71 | 180 | 6.0 | 17.0 | 0.00 | 0.00 | 0.00 | 84 | 1002.2 |
| 20260505091517 | 72 | 203 | 6.0 | 12.0 | 0.00 | 0.00 | 0.00 | 84 | 1002.3 |
| 20260505090517 | 72 | 180 | 5.0 | 15.0 | 0.00 | 0.00 | 0.00 | 84 | 1002.5 |
| 20260505085537 | 72 | 180 | 6.0 | 15.0 | 0.00 | 0.00 | 0.00 | 83 | 1002.5 |
| 20260505084517 | 72 | 203 | 5.0 | 13.0 | 0.00 | 0.00 | 0.00 | 83 | 1002.5 |
| 20260505083517 | 72 | 203 | 6.0 | 13.0 | 0.00 | 0.00 | 0.00 | 82 | 1002.5 |
| 20260505082517 | 73 | 203 | 5.0 | 10.0 | 0.00 | 0.00 | 0.00 | 82 | 1002.6 |
| 20260505081537 | 73 | 180 | 7.0 | 16.0 | 0.00 | 0.00 | 0.00 | 81 | 1002.4 |
| 20260505080517 | 73 | 180 | 4.0 | 12.0 | 0.00 | 0.00 | 0.00 | 80 | 1002.6 |
| 20260505075517 | 73 | 203 | 5.0 | 13.0 | 0.00 | 0.00 | 0.00 | 79 | 1002.5 |
| 20260505074517 | 73 | 203 | 6.0 | 11.0 | 0.00 | 0.00 | 0.00 | 78 | 1002.7 |
| 20260505073517 | 74 | 158 | 5.0 | 11.0 | 0.00 | 0.00 | 0.00 | 78 | 1002.9 |
| 20260505072517 | 74 | 203 | 5.0 | 13.0 | 0.00 | 0.00 | 0.00 | 78 | 1003.0 |
| 20260505071517 | 74 | 203 | 6.0 | 15.0 | 0.00 | 0.00 | 0.00 | 77 | 1003.1 |
| 20260505070517 | 74 | 158 | 5.0 | 16.0 | 0.00 | 0.00 | 0.00 | 76 | 1003.4 |
| 20260505065537 | 74 | 158 | 6.0 | 15.0 | 0.00 | 0.00 | 0.00 | 76 | 1003.5 |
| 20260505064517 | 74 | 203 | 5.0 | 13.0 | 0.00 | 0.00 | 0.00 | 75 | 1003.7 |
| 20260505063517 | 75 | 158 | 6.0 | 12.0 | 0.00 | 0.00 | 0.00 | 75 | 1003.7 |
| 20260505062517 | 75 | 203 | 6.0 | 11.0 | 0.00 | 0.00 | 0.00 | 74 | 1003.8 |
| 20260505061517 | 75 | 180 | 5.0 | 13.0 | 0.00 | 0.00 | 0.00 | 73 | 1003.9 |
| 20260505060517 | 75 | 180 | 6.0 | 13.0 | 0.00 | 0.00 | 0.00 | 73 | 1003.9 |
| 20260505055517 | 76 | 180 | 6.0 | 13.0 | 0.00 | 0.00 | 0.00 | 72 | 1003.9 |
| 20260505054517 | 76 | 203 | 7.0 | 18.0 | 0.00 | 0.00 | 0.00 | 72 | 1003.8 |
| 20260505053517 | 76 | 180 | 5.0 | 13.0 | 0.00 | 0.00 | 0.00 | 72 | 1003.8 |
| 20260505052537 | 76 | 180 | 6.0 | 12.0 | 0.00 | 0.00 | 0.00 | 72 | 1003.8 |
| 20260505051517 | 76 | 203 | 5.0 | 10.0 | 0.00 | 0.00 | 0.00 | 73 | 1003.9 |
| 20260505050517 | 75 | 158 | 5.0 | 11.0 | 0.00 | 0.00 | 0.00 | 73 | 1003.8 |
| 20260505041516 | 75 | 158 | 6.0 | 13.0 | 0.00 | 0.00 | 0.00 | 74 | 1004.1 |
| 20260505040515 | 75 | 203 | 5.0 | 13.0 | 0.00 | 0.00 | 0.00 | 74 | 1004.2 |
| 20260505035515 | 75 | 158 | 5.0 | 11.0 | 0.00 | 0.00 | 0.00 | 73 | 1004.2 |
| 20260505034516 | 75 | 180 | 5.0 | 12.0 | 0.00 | 0.00 | 0.00 | 73 | 1004.3 |
| 20260505033516 | 75 | 158 | 5.0 | 10.0 | 0.00 | 0.00 | 0.00 | 73 | 1004.1 |
| 20260505032516 | 75 | 158 | 5.0 | 13.0 | 0.00 | 0.00 | 0.00 | 73 | 1004.2 |
| 20260505031515 | 76 | 180 | 6.0 | 12.0 | 0.00 | 0.00 | 0.00 | 72 | 1004.1 |
| 20260505030515 | 76 | 158 | 6.0 | 11.0 | 0.00 | 0.00 | 0.00 | 72 | 1004.1 |
| 20260505025516 | 76 | 158 | 7.0 | 13.0 | 0.00 | 0.00 | 0.00 | 72 | 1004.1 |
| 20260505024516 | 76 | 158 | 6.0 | 14.0 | 0.00 | 0.00 | 0.00 | 71 | 1004.2 |
| 20260505023516 | 76 | 158 | 7.0 | 14.0 | 0.00 | 0.00 | 0.00 | 71 | 1004.0 |
| 20260505022516 | 76 | 180 | 6.0 | 17.0 | 0.00 | 0.00 | 0.00 | 71 | 1004.1 |
| 20260505021516 | 76 | 158 | 5.0 | 12.0 | 0.00 | 0.00 | 0.00 | 71 | 1004.0 |
| 20260505020515 | 76 | 158 | 5.0 | 10.0 | 0.00 | 0.00 | 0.00 | 71 | 1004.0 |
| 20260505015536 | 76 | 158 | 4.0 | 10.0 | 0.00 | 0.00 | 0.00 | 71 | 1004.0 |
| 20260505014516 | 76 | 135 | 5.0 | 13.0 | 0.00 | 0.00 | 0.00 | 71 | 1004.0 |
| 20260505013515 | 76 | 180 | 6.0 | 13.0 | 0.00 | 0.00 | 0.00 | 71 | 1004.0 |
| 20260505012515 | 77 | 135 | 4.0 | 10.0 | 0.00 | 0.00 | 0.00 | 70 | 1004.0 |
| 20260505011516 | 77 | 203 | 5.0 | 13.0 | 0.00 | 0.00 | 0.00 | 69 | 1004.0 |
| 20260505010535 | 77 | 158 | 6.0 | 11.0 | 0.00 | 0.00 | 0.00 | 69 | 1004.0 |
| 20260505005536 | 78 | 203 | 5.0 | 11.0 | 0.00 | 0.00 | 0.00 | 68 | 1003.9 |
| 20260505004556 | 78 | 158 | 5.0 | 13.0 | 0.00 | 0.00 | 0.00 | 68 | 1003.9 |
| 20260505003515 | 78 | 180 | 6.0 | 13.0 | 0.00 | 0.00 | 0.00 | 67 | 1003.9 |
| 20260505002536 | 79 | 180 | 5.0 | 12.0 | 0.00 | 0.00 | 0.00 | 67 | 1004.1 |
| 20260505001515 | 79 | 180 | 5.0 | 11.0 | 0.00 | 0.00 | 0.00 | 66 | 1004.2 |
| 20260505000536 | 80 | 158 | 5.0 | 12.0 | 0.00 | 0.00 | 0.00 | 65 | 1004.2 |
| 20260504235515 | 80 | 180 | 6.0 | 14.0 | 0.00 | 0.00 | 0.00 | 64 | 1004.4 |
| 20260504234515 | 80 | 158 | 6.0 | 14.0 | 0.00 | 0.00 | 0.00 | 63 | 1004.3 |
| 20260504233516 | 81 | 158 | 7.0 | 13.0 | 0.00 | 0.00 | 0.00 | 63 | 1004.5 |
| 20260504232535 | 81 | 158 | 7.0 | 12.0 | 0.00 | 0.00 | 0.00 | 63 | 1004.5 |
| 20260504231516 | 81 | 158 | 5.0 | 10.0 | 0.00 | 0.00 | 0.00 | 61 | 1004.4 |
| 20260504230515 | 81 | 158 | 9.0 | 19.0 | 0.00 | 0.00 | 0.00 | 61 | 1004.5 |
| 20260504225515 | 82 | 203 | 9.0 | 21.0 | 0.00 | 0.00 | 0.00 | 60 | 1004.6 |
| 20260504224516 | 83 | 180 | 8.0 | 19.0 | 0.00 | 0.00 | 0.00 | 59 | 1004.9 |
| 20260504223515 | 83 | 203 | 6.0 | 14.0 | 0.00 | 0.00 | 0.00 | 59 | 1004.8 |
| 20260504222516 | 84 | 180 | 7.0 | 12.0 | 0.00 | 0.00 | 0.00 | 59 | 1004.7 |
| 20260504221516 | 83 | 180 | 6.0 | 14.0 | 0.00 | 0.00 | 0.00 | 59 | 1004.8 |
| 20260504220515 | 83 | 203 | 5.0 | 14.0 | 0.00 | 0.00 | 0.00 | 59 | 1005.1 |
| 20260504215515 | 84 | 135 | 7.0 | 15.0 | 0.00 | 0.00 | 0.00 | 58 | 1005.0 |